(401312) = 2012 XQ151

Discovered at Kitt Peak on 2006-03-05 by Spacewatch.

Orbit

Orbit type: Main Belt

Note: WebGL enabled browser required.

epoch2024-03-31.0
epoch JD2460400.5
perihelion date2024-07-27.09842
perihelion JD2460518.59842
argument of perihelion (°)319.43597
ascending node (°)223.17800
inclination (°)4.86391
eccentricity0.1742295
perihelion distance (AU)1.9644997
Tisserand w.r.t. Jupiter3.5
ΔV w.r.t. Earth (km/sec)8.9
semimajor axis (AU)2.3789900
mean anomaly (°)328.27811
mean daily motion (°/day)0.26860550
aphelion distance (AU)2.793
period (years)3.67
P-vector [x]-0.99735708
P-vector [y]-0.02147723
P-vector [z]-0.06940887
Q-vector [x]0.04373460
Q-vector [y]-0.94031898
Q-vector [z]-0.33747223
absolute magnitude17.61
phase slope0.15
uncertainty0
referenceMPEC 2024-C181
observations used299
oppositions11
arc length (days)6555
first opposition used2006
last opposition used2024
residual rms (arc-secs)0.68
perturbers coarse indicatorM-v
perturbers precise indicator003Ek
first observation date used2006-03-05.0
last observation date used2024-02-14.0
computer nameMPCLINUX
JD of orbit computation2456844.771805
perihelion JD uncertainty (days)1.0693E-04
argument of perihelion uncertainty (°)9.8212E-05
ascending node uncertainty (°)9.4028E-05
inclination uncertainty (°)5.6072E-06
eccentricity uncertainty 4.8193E-08
perihelion distance uncertainty (AU)1.1928E-07
Minimum Orbit Intersection Distances (in AU)
for orbit epoch: 2460400.5, reference: E2024-CI1
Mercury1.55691
Venus1.25103
Earth0.96985
Mars0.34665
Jupiter2.17763
Saturn6.51978
Uranus16.4568
Neptune27.0681

Observations

299 total observations over interval: 2006 03 05.39356 – 2024 02 14.263563
These data are available for download (format description).

Date (UT) J2000 RA J2000 Dec Magn Location Ref
2006 03 05.39356 12 23 12.06 -09 54 00.9 20.4 V 691 – Steward Observatory, Kitt Peak-Spacewatch MPS 449755
2006 03 05.41090 12 23 11.44 -09 53 56.5 20.8 V 691 – Steward Observatory, Kitt Peak-Spacewatch MPS 449755
2006 03 05.42825 12 23 10.82 -09 53 51.8 20.5 V 691 – Steward Observatory, Kitt Peak-Spacewatch MPS 449755
2006 04 21.13289 11 53 15.40 -04 01 40.4   691 – Steward Observatory, Kitt Peak-Spacewatch MPS 449755
2006 04 21.15660 11 53 14.96 -04 01 30.3   691 – Steward Observatory, Kitt Peak-Spacewatch MPS 449755
2006 04 21.18030 11 53 14.52 -04 01 20.8   691 – Steward Observatory, Kitt Peak-Spacewatch MPS 449755
2008 10 22.48216 04 55 03.86 +20 44 00.7 21.0 V 691 – Steward Observatory, Kitt Peak-Spacewatch MPS 449755
2008 10 22.49983 04 55 03.53 +20 43 58.1 21.1 V 691 – Steward Observatory, Kitt Peak-Spacewatch MPS 449755
2008 10 22.51751 04 55 03.23 +20 43 55.2 21.2 V 691 – Steward Observatory, Kitt Peak-Spacewatch MPS 449755
2008 10 26.43063 04 53 47.04 +20 32 50.4 20.9 V 691 – Steward Observatory, Kitt Peak-Spacewatch MPS 449755
2008 10 26.44834 04 53 46.53 +20 32 49.6 21.3 V 691 – Steward Observatory, Kitt Peak-Spacewatch MPS 449755
2008 10 26.46605 04 53 46.05 +20 32 45.7 21.3 V 691 – Steward Observatory, Kitt Peak-Spacewatch MPS 449755
2008 12 01.18192 04 24 02.80 +18 12 33.6 20.5 V 691 – Steward Observatory, Kitt Peak-Spacewatch MPS 449755
2008 12 01.20251 04 24 01.43 +18 12 28.5 20.6 V 691 – Steward Observatory, Kitt Peak-Spacewatch MPS 449755
2008 12 01.22022 04 24 00.24 +18 12 23.4 20.5 V 691 – Steward Observatory, Kitt Peak-Spacewatch MPS 449755
2008 12 30.18723 03 57 54.75 +16 27 04.7 20.5 V G96 – Mt. Lemmon Survey MPS 449755
2008 12 30.19574 03 57 54.43 +16 27 03.9 20.5 V G96 – Mt. Lemmon Survey MPS 449755
2008 12 30.20219 03 57 54.18 +16 27 02.5 20.6 V G96 – Mt. Lemmon Survey MPS 449755
2008 12 30.20869 03 57 53.96 +16 27 01.7 21.1 V G96 – Mt. Lemmon Survey MPS 449755
2012 11 27.43004 08 06 31.28 +14 14 10.0 21.2 V G96 – Mt. Lemmon Survey MPS 448849
2012 11 27.43603 08 06 31.35 +14 14 08.7 21.0 V G96 – Mt. Lemmon Survey MPS 448849
2012 11 27.44208 08 06 31.42 +14 14 06.8 21.2 V G96 – Mt. Lemmon Survey MPS 448849
2012 11 27.44807 08 06 31.46 +14 14 05.6 21.6 V G96 – Mt. Lemmon Survey MPS 448849
2012 12 10.41500 08 05 58.24 +13 26 40.5 20.8 V 691 – Steward Observatory, Kitt Peak-Spacewatch MPS 447964
2012 12 10.43268 08 05 57.94 +13 26 37.2 20.8 V 691 – Steward Observatory, Kitt Peak-Spacewatch MPS 447964
2012 12 10.45036 08 05 57.59 +13 26 33.7 21.3 V 691 – Steward Observatory, Kitt Peak-Spacewatch MPS 447964
2012 12 17.17586 08 03 27.34 +13 09 00.4 20.4 R J04 – ESA Optical Ground Station, Tenerife MPS 447964
2012 12 17.18697 08 03 26.99 +13 08 59.0 20.3 R J04 – ESA Optical Ground Station, Tenerife MPS 447964
2012 12 17.19808 08 03 26.63 +13 08 57.5 20.7 R J04 – ESA Optical Ground Station, Tenerife MPS 447964
2012 12 17.20919 08 03 26.27 +13 08 55.8 20.2 R J04 – ESA Optical Ground Station, Tenerife MPS 447964
2013 01 05.32178 07 48 56.05 +12 50 10.3 19.8 V G96 – Mt. Lemmon Survey MPS 449755
2013 01 05.32762 07 48 55.72 +12 50 10.7 19.9 V G96 – Mt. Lemmon Survey MPS 449755
2013 01 05.33348 07 48 55.36 +12 50 10.6 20.2 V G96 – Mt. Lemmon Survey MPS 449755
2013 01 05.33946 07 48 55.00 +12 50 10.6 20.1 V G96 – Mt. Lemmon Survey MPS 449755
2013 01 07.51158 07 46 44.290 +12 51 03.25 20.3 g F51 – Pan-STARRS 1, Haleakala MPS 449755
2013 01 07.52402 07 46 43.508 +12 51 03.59 20.4 g F51 – Pan-STARRS 1, Haleakala MPS 449755
2013 01 07.53694 07 46 42.680 +12 51 03.97 19.7 r F51 – Pan-STARRS 1, Haleakala MPS 449755
2013 01 07.54908 07 46 41.907 +12 51 04.24 20.1 r F51 – Pan-STARRS 1, Haleakala MPS 449755
2013 01 08.95800 07 45 15.40 +12 51 53.6 19.5   A14 – Les Engarouines Observatory MPS 449755
2013 01 08.98183 07 45 13.89 +12 51 54.3 20.1   A14 – Les Engarouines Observatory MPS 449755
2013 01 09.00591 07 45 12.39 +12 51 56.2 20.0   A14 – Les Engarouines Observatory MPS 449755
2013 01 17.27366 07 36 24.11 +13 01 35.3 20.2 G G45 – Space Surveillance Telescope, Atom Site MPS 1610476
2013 01 17.36913 07 36 17.70 +13 01 44.9 20.5 G G45 – Space Surveillance Telescope, Atom Site MPS 1610476
2013 01 17.37996 07 36 17.02 +13 01 46.2 20.9 G G45 – Space Surveillance Telescope, Atom Site MPS 1610476
2013 01 17.38321 07 36 16.76 +13 01 45.9 19.6 G G45 – Space Surveillance Telescope, Atom Site MPS 1610476
2013 01 17.42552 07 36 14.00 +13 01 50.3 20.0 G G45 – Space Surveillance Telescope, Atom Site MPS 1610476
2014 07 04.48301 20 16 55.413 -11 57 08.44 21.0 w F51 – Pan-STARRS 1, Haleakala MPS 522267
2014 07 04.49644 20 16 54.685 -11 57 09.40 20.9 w F51 – Pan-STARRS 1, Haleakala MPS 522267
2014 07 04.50982 20 16 53.942 -11 57 10.11 20.9 w F51 – Pan-STARRS 1, Haleakala MPS 522267
2015 10 14.23707 02 12 50.73 +15 09 30.2 20.7 V 691 – Steward Observatory, Kitt Peak-Spacewatch MPS 635558
2015 10 14.25591 02 12 49.68 +15 09 22.7 21.0 V 691 – Steward Observatory, Kitt Peak-Spacewatch MPS 635558
2015 10 14.27472 02 12 48.67 +15 09 16.8 21.3 V 691 – Steward Observatory, Kitt Peak-Spacewatch MPS 635558
2017 01 28.59681 12 16 21.052 -08 56 10.82 21.0 w F51 – Pan-STARRS 1, Haleakala MPS 765852
2017 01 28.60842 12 16 21.359 -08 56 14.17 21.1 w F51 – Pan-STARRS 1, Haleakala MPS 765852
2017 01 28.62004 12 16 21.675 -08 56 17.44 21.1 w F51 – Pan-STARRS 1, Haleakala MPS 765852
2017 01 28.63164 12 16 21.991 -08 56 20.69 21.2 w F51 – Pan-STARRS 1, Haleakala MPS 765852
2017 02 21.27831 12 19 21.90 -09 42 29.3 20.4 G G45 – Space Surveillance Telescope, Atom Site MPS 1610476
2017 02 21.32537 12 19 21.11 -09 42 26.4 19.9 G G45 – Space Surveillance Telescope, Atom Site MPS 1610476
2017 02 21.36790 12 19 20.30 -09 42 22.4 20.5 G G45 – Space Surveillance Telescope, Atom Site MPS 1610476
2017 02 21.41131 12 19 19.50 -09 42 19.6 20.6 G G45 – Space Surveillance Telescope, Atom Site MPS 1610476
2017 02 22.48943 12 19 02.060 -09 40 46.97 20.4 w F51 – Pan-STARRS 1, Haleakala MPS 771831
2017 02 22.50178 12 19 01.805 -09 40 45.80 20.4 w F51 – Pan-STARRS 1, Haleakala MPS 771831
2017 02 22.51411 12 19 01.548 -09 40 44.62 20.3 w F51 – Pan-STARRS 1, Haleakala MPS 771831
2017 03 02.39461 12 15 49.04 -09 19 19.9 20.2 r G45 – Space Surveillance Telescope, Atom Site MPS 775742
2017 03 02.39953 12 15 48.89 -09 19 18.9 20.0 r G45 – Space Surveillance Telescope, Atom Site MPS 775742
2017 03 02.40433 12 15 48.73 -09 19 17.6 20.0 r G45 – Space Surveillance Telescope, Atom Site MPS 775742
2017 03 02.40939 12 15 48.55 -09 19 16.4 20.5 r G45 – Space Surveillance Telescope, Atom Site MPS 775742
2017 03 02.41432 12 15 48.40 -09 19 15.0 20.0 r G45 – Space Surveillance Telescope, Atom Site MPS 775743
2017 03 02.41928 12 15 48.22 -09 19 14.1 20.1 r G45 – Space Surveillance Telescope, Atom Site MPS 775743
2017 03 19.36962 12 04 16.014 -07 37 50.93 19.6 w F51 – Pan-STARRS 1, Haleakala MPS 781671
2017 03 19.38174 12 04 15.404 -07 37 45.33 19.6 w F51 – Pan-STARRS 1, Haleakala MPS 781671
2017 03 19.39382 12 04 14.793 -07 37 39.76 19.5 w F51 – Pan-STARRS 1, Haleakala MPS 781671
2017 03 19.40590 12 04 14.183 -07 37 34.17 19.5 w F51 – Pan-STARRS 1, Haleakala MPS 781671
2017 03 24.29331 12 00 22.54 -06 58 01.0 19.4 V 703 – Catalina Sky Survey MPS 781671
2017 03 24.29910 12 00 22.20 -06 57 58.6 20.9 V 703 – Catalina Sky Survey MPS 781671
2017 03 24.30488 12 00 21.90 -06 57 56.2 20.1 V 703 – Catalina Sky Survey MPS 781671
2017 03 24.31066 12 00 21.56 -06 57 52.2 20.5 V 703 – Catalina Sky Survey MPS 781671
2017 03 26.29729 11 58 48.26 -06 41 01.1 19.5 V 703 – Catalina Sky Survey MPS 784836
2017 03 26.30286 11 58 48.01 -06 40 57.6 19.7 V 703 – Catalina Sky Survey MPS 784836
2017 03 26.30843 11 58 47.72 -06 40 55.1 19.5 V 703 – Catalina Sky Survey MPS 784836
2017 03 26.31399 11 58 47.50 -06 40 52.1   703 – Catalina Sky Survey MPS 784836
2017 03 27.46115 11 57 54.065 -06 30 59.34 19.6 w F51 – Pan-STARRS 1, Haleakala MPS 784836
2017 03 27.47360 11 57 53.452 -06 30 52.94 19.5 w F51 – Pan-STARRS 1, Haleakala MPS 784836
2017 03 27.48600 11 57 52.837 -06 30 46.50 19.4 w F51 – Pan-STARRS 1, Haleakala MPS 784836
2017 03 29.25518 11 56 32.45 -06 15 27.0 19.6 V 691 – Steward Observatory, Kitt Peak-Spacewatch MPS 784836
